Regional Weather Roundup
Issued by NWS State College, PA

Home | Current Version | Previous Version | Text Only | Print | Product List | Glossary On
Versions: 1 2 3 4 5 6 7 8 9 10 11 12 13 14 15 16 17 18 19 20 21 22 23 24 25 26 27 28 29 30 31 32 33 34 35 36 37 38 39 40 41 42 43 44 45 46 47 48 49 50
000
ASUS41 KCTP 031010
RWRCTP

REGIONAL WEATHER ROUNDUP
NATIONAL WEATHER SERVICE STATE COLLEGE PA
600 AM EDT THU SEP 03 2015

Note: "fair" indicates few or no clouds below 12,000 feet with no
significant weather and/or obstructions to visibility.

* = STATION THAT DOES NOT REPORT PRECIPITATION /E.G. RAIN...SNOW...ETC/
    THUNDER OR FOG.

PAZ002>004-007>009-013>016-020>023-029>032-031100-
WESTERN PENNSYLVANIA

CITY           SKY/WX    TMP DP  RH WIND       PRES   REMARKS
ERIE           PTCLDY    70  65  84 S5        29.96S
MEADVILLE      PTCLDY    67  64  90 S6        29.99S FOG
FRANKLIN*      PTCLDY    64  63  94 CALM      30.01S
NEW CASTLE     FAIR      66  66 100 CALM      30.00R FOG
BEAVER COUNTY  NOT AVBL
BUTLER*        CLEAR     64  63  94 CALM      30.01R
PITTSBURGH INT MOCLDY    70  65  84 CALM      29.98S
PITTSBURGH     PTCLDY    67  63  87 CALM      29.98S FOG
INDIANA*       CLEAR     66  66 100 CALM      30.03S FOG
LATROBE        NOT AVBL
WASHINGTON CO* PTCLDY    64  64 100 CALM      30.00R
$$

PAZ004>006-010>012-017>019-024>028-033>037-041-042-045-046-049>053-031100-
CENTRAL PENNSYLVANIA

CITY           SKY/WX    TMP DP  RH WIND       PRES   REMARKS
BRADFORD       MOCLDY    57  55  93 CALM      30.02R FOG
DUBOIS         FOG       65  63  93 CALM      30.00R VSB 1/4
CLEARFIELD     FOG       64  63  96 SW3       30.00R VSB 1/4
JOHNSTOWN      CLEAR     65  62  90 W7        30.03R FOG
ALTOONA        CLEAR     64  62  93 CALM      30.00R FOG
STATE COLLEGE  CLEAR     66  64  94 CALM      29.97S
WILLIAMSPORT   PTCLDY    67  64  90 CALM      29.92S FOG
SELINSGROVE    CLEAR     64  63  96 CALM      29.93S FOG
FT INDIANTOWN  CLEAR     66  65  97 VRB1      29.91S FOG
CAPITAL CITY   CLEAR     71  65  81 NW5       29.91S
HARRISBURG     PTCLDY    73  66  78 NW9       29.91R
YORK           CLEAR     63  62  97 CALM      29.92S FOG
$$

PAZ038>040-043-044-047-048-054-055-060>062-067>071-031100-
EASTERN PENNSYLVANIA

CITY           SKY/WX    TMP DP  RH WIND       PRES   REMARKS
SCRANTON       CLEAR     65  61  87 CALM      29.94S FOG
MOUNT POCONO   CLEAR     67  63  87 NW5       29.96S
ALLENTOWN      CLEAR     67  64  90 CALM      29.90S FOG
QUAKERTOWN*    MOSUNNY   64  63  94 CALM      29.92R
READING        CLEAR     69  65  86 CALM      29.90S FOG
LANCASTER      CLEAR     68  66  93 NW3       29.91S FOG
COATESVILLE    SUNNY     68  66  94 W5        29.92S FOG
POTTSTOWN      PTCLDY    67  65  93 CALM      29.92R
BLUE BELL      MOCLDY    64  64 100 CALM      29.89R
DOYLESTOWN     CLEAR     66  64  93 CALM      29.89S
WILLOW GROVE   NOT AVBL
NORTH PHILA    PTCLDY    72  62  71 CALM      29.89S
PHILADELPHIA   PTCLDY    77  64  64 N3        29.89R
$$


USA.gov is the U.S. government's official web portal to all federal, state and local government web resources and services.